TimeCST,TemperatureF,Dew PointF,Humidity,Sea Level PressureIn,VisibilityMPH,Wind Direction,Wind SpeedMPH,Gust SpeedMPH,PrecipitationIn,Events,Conditions,WindDirDegrees,DateUTC
12:53 AM,21.0,12.0,68,29.75,10.0,SSE,12.7,-,N/A,,Mostly Cloudy,160,2013-02-18 06:53:00
1:53 AM,21.9,12.9,68,29.70,10.0,SSE,11.5,-,N/A,,Mostly Cloudy,160,2013-02-18 07:53:00
2:53 AM,21.9,14.0,72,29.67,10.0,SSE,6.9,-,N/A,,Clear,150,2013-02-18 08:53:00
3:53 AM,23.0,15.1,72,29.65,10.0,SSE,9.2,-,N/A,,Clear,160,2013-02-18 09:53:00
4:53 AM,23.0,15.1,72,29.63,10.0,SE,8.1,-,N/A,,Clear,130,2013-02-18 10:53:00
6:33 AM,24.8,17.6,74,29.55,10.0,South,6.9,-,N/A,,Mostly Cloudy,170,2013-02-18 12:33:00
6:53 AM,25.0,18.0,75,29.60,10.0,Variable,5.8,-,N/A,,Overcast,0,2013-02-18 12:53:00
7:53 AM,26.1,18.0,71,29.59,10.0,SSE,6.9,-,N/A,,Overcast,150,2013-02-18 13:53:00
8:53 AM,26.1,19.0,75,29.57,10.0,SSE,6.9,-,N/A,,Overcast,160,2013-02-18 14:53:00
9:53 AM,27.0,19.9,75,29.57,10.0,South,5.8,-,N/A,,Overcast,170,2013-02-18 15:53:00
10:40 AM,28.4,21.2,74,29.49,10.0,SSE,4.6,-,N/A,,Overcast,160,2013-02-18 16:40:00
10:53 AM,28.9,21.0,72,29.55,10.0,South,4.6,-,N/A,,Overcast,190,2013-02-18 16:53:00
11:06 AM,30.2,21.2,69,29.50,10.0,South,5.8,-,N/A,,Overcast,170,2013-02-18 17:06:00
11:53 AM,30.9,23.0,72,29.56,10.0,Variable,3.5,-,N/A,,Overcast,0,2013-02-18 17:53:00
12:53 PM,32.0,24.1,73,29.52,9.0,SW,3.5,-,N/A,,Overcast,220,2013-02-18 18:53:00
1:53 PM,32.0,24.1,73,29.52,9.0,Calm,Calm,-,N/A,,Overcast,0,2013-02-18 19:53:00
2:53 PM,32.0,24.1,73,29.54,9.0,West,4.6,-,N/A,,Overcast,270,2013-02-18 20:53:00
3:45 PM,30.2,24.8,80,29.51,4.0,Variable,5.8,-,N/A,,Haze,0,2013-02-18 21:45:00
3:53 PM,30.0,25.0,82,29.57,4.0,West,6.9,-,0.00,,Overcast,260,2013-02-18 21:53:00
4:05 PM,30.2,24.8,80,29.52,2.5,Variable,4.6,-,0.00,Rain,Light Freezing Rain,0,2013-02-18 22:05:00
4:25 PM,28.4,26.6,93,29.52,1.8,Variable,4.6,-,0.00,Rain,Light Freezing Rain,0,2013-02-18 22:25:00
4:37 PM,28.4,26.6,93,29.53,2.0,WNW,5.8,-,0.00,Rain,Light Freezing Rain,290,2013-02-18 22:37:00
4:53 PM,28.9,26.1,89,29.58,2.5,Variable,4.6,-,0.00,Rain,Light Freezing Rain,0,2013-02-18 22:53:00
5:02 PM,28.4,24.8,86,29.53,3.0,Variable,5.8,-,0.00,,Overcast,0,2013-02-18 23:02:00
5:14 PM,28.4,24.8,86,29.53,5.0,Variable,4.6,-,0.00,,Overcast,0,2013-02-18 23:14:00
5:53 PM,28.0,24.1,85,29.60,8.0,Variable,3.5,-,0.00,,Overcast,0,2013-02-18 23:53:00
6:16 PM,26.6,23.0,86,29.54,8.0,Variable,3.5,-,N/A,,Overcast,0,2013-02-19 00:16:00
6:53 PM,27.0,23.0,85,29.60,5.0,Variable,5.8,-,N/A,,Overcast,0,2013-02-19 00:53:00
7:53 PM,26.1,21.9,84,29.61,5.0,Variable,6.9,-,N/A,,Overcast,0,2013-02-19 01:53:00
8:34 PM,23.0,17.6,80,29.57,10.0,WNW,8.1,-,N/A,,Overcast,290,2013-02-19 02:34:00
8:53 PM,21.9,17.1,82,29.63,10.0,Variable,6.9,-,N/A,,Overcast,0,2013-02-19 02:53:00
9:39 PM,19.4,14.0,80,29.58,8.0,WNW,11.5,23.0,0.00,Snow,Light Snow,300,2013-02-19 03:39:00
9:53 PM,19.9,12.9,74,29.65,6.0,Variable,6.9,18.4,0.00,Snow,Light Snow,0,2013-02-19 03:53:00
10:53 PM,17.1,10.0,74,29.66,4.0,NW,9.2,-,0.00,Snow,Light Snow,320,2013-02-19 04:53:00
11:41 PM,14.0,8.6,79,29.63,2.5,Variable,6.9,-,0.00,Snow,Light Snow,0,2013-02-19 05:41:00
11:53 PM,14.0,8.1,77,29.69,2.5,Variable,4.6,-,0.00,Snow,Light Snow,0,2013-02-19 05:53:00